Retour au catalogue

NATO 4B

ActifMilitaireGEO
NORAD 22921·PAYLOAD· XX

Lancé Dec 8, 1993 depuis Cape Canaveral Space Force Station

Loading…

TLE

FraisSource: Space-Track

Époque: Sep 14, 2026, 03:22 UTC

1 22921U 93076A   26257.14031036 -.00000217  00000-0  00000-0 0  9992
2 22921  12.9686   0.5943 0000795 201.3013 165.9288  0.98519648119495

Suivez NATO 4B en temps réel avec AllMySat

Download on the App Store